Location: Trebic
(49.2170°N, 15.8830°E)
Time: 13:45:52
(UTC+02:00)

Transit 2A Rocket - Pass Details

Date: 27 July 2019
Orbit: 590 x 913 km, 66.7° (Epoch: 18 August)

Event Time Altitude Azimuth Distance (km) Brightness Sun altitude
Rises 10:03:25 0° 326° (NW) 3,216 7.9 43.3°
Reaches altitude 10° 10:06:04 10° 334° (NNW) 2,231 7.2 43.7°
Maximum altitude 10:10:47 38° 43° (NE) 1,038 6.4 44.4°
Drops below altitude 10° 10:15:05 10° 112° (ESE) 2,040 8.3 45.1°
Sets 10:17:25 0° 120° (ESE) 2,907 8.8 45.4°
